Preview of NWS' New Version of Forecast
This preview is not operational and should not be used for support decisions.
Latest weather observations around

Spokane, Spokane International Airport (KGEG)

Using International System of Units (Switch to English Units)
Date/ Time (PDT) Wind (kph) Vis. (km) Weather Sky Cond. Temp (°C) Rel. Humidity Wind Chill (°C) Heat Index (°C) Pressure Precip. (cm)
Air Dwpt 6 hour Altimeter (hPa) Sea level (hPa) 1 hr 3 hr 6 hr
Max Min
Jul 16 11:53 8 16.09 Mostly Cloudy FEW025 SCT060 SCT100 BKN220 19 11     61%     1016.3 1015.1      
Jul 16 10:53 S 11 16.09 Mostly Cloudy FEW025 BKN055 BKN100 BKN200 17 13     75%     1016.6 1015.5     0
Jul 16 09:53 SSE 13 16.09 Mostly Cloudy FEW015 SCT050 BKN080 BKN200 15 12     83%     1016.6 1015.8 0    
Jul 16 08:53 SE 13 11.27 Light Rain FEW015 BKN040 BKN060 14 12     87%     1016.6 1015.7 0    
Jul 16 07:53 ESE 8 16.09 Mostly Cloudy SCT045 BKN055 BKN120 15 12     81%     1016.6 1015.5 0 0  
Jul 16 06:53 SSE 11 11.27 Light Rain SCT040 BKN055 BKN120 15 11     75%     1016.3 1015.1 0    
Jul 16 05:53 SSE 11 16.09 Mostly Cloudy FEW033 BKN045 BKN060 14 11     83%     1015.6 1014.6 0    
Jul 16 04:53 8 16.09 Light Rain SCT043 BKN060 BKN095 14 11     81%     1015.6 1014.7 0   0
Jul 16 03:53 E 5 16.09 Mostly Cloudy FEW065 BKN110 15 8     64%     1015.6 1014.4      
Jul 16 02:53 SE 8 16.09 Mostly Cloudy FEW080 BKN095 BKN110 16 8     62%     1015.6 1014.4      
Jul 16 01:53 SSE 9 16.09 Mostly Cloudy BKN075 BKN090 17 8     58%     1015.6 1014.5      
Jul 16 00:53 SE 8 16.09 Mostly Cloudy BKN075 BKN090 17 8     58%     1015.9 1014.8      
Jul 15 23:53 SSE 8 16.09 Mostly Cloudy FEW065 BKN085 18 8     52%     1015.9 1014.8      
Jul 15 22:53 Calm 16.09 Mostly Cloudy FEW065 BKN080 18 8     52%     1015.9 1014.9      
Jul 15 21:53 S 5 16.09 Clear   19 7     47%     1016.3 1014.9      
Jul 15 20:53 W 8 16.09 Mostly Cloudy FEW070 SCT100 BKN180 20 7     43%     1016.3 1014.8      
Jul 15 19:53 WSW 13 16.09 Mostly Cloudy SCT070 BKN100 BKN180 21 7     39%     1016.3 1014.9      
Jul 15 18:53 SSW 8 16.09 Mostly Cloudy FEW080 SCT110 BKN170 BKN220 21 7     41%     1015.9 1014.9      
Jul 15 17:53 S 13 16.09 Cloudy FEW085 BKN110 OVC140 21 7     41%     1016.3 1015.2      
Jul 15 16:53 S 8 16.09 Cloudy FEW075 BKN090 OVC110 21 7     39%     1016.6 1015.5 0   0
Jul 15 15:53 WNW 9 16.09 Cloudy FEW075 SCT100 OVC130 22 7     38%   21 1017.3 1016.1      
Jul 15 14:53 Calm 16.09 Cloudy FEW070 OVC090 21 7     39%     1017.3 1016 0    
Jul 15 13:53 NNW 9 16.09 Light Rain FEW065 OVC085 21 6     38%     1017.3 1016.2 0 0  
Jul 15 12:53 W 17 16.09 Cloudy SCT065 OVC080 21 6     36%     1017.6 1016.4 0    
Jul 15 11:53 SW 9 16.09 Light Rain SCT070 OVC095 21 9     47%     1017.6 1016.3 0    
Jul 15 10:53 Calm 16.09 Light Rain SCT070 OVC090 20 7     43%     1017.3 1015.9 0   0
Jul 15 09:53 S 9 16.09 Cloudy SCT070 BKN090 OVC120 19 7     44%     1017.3 1015.8 0    
Jul 15 08:53 SSE 11 16.09 Cloudy FEW080 BKN110 OVC160 19 6     42%     1017.3 1015.7      
Jul 15 07:53 S 17 16.09 Mostly Cloudy SCT120 BKN140 BKN210 17 6     48%     1017.3 1015.7      
Jul 15 06:53 S 11 16.09 Mostly Cloudy FEW080 BKN140 BKN210 16 6     52%     1016.9 1015.4      
Jul 15 05:53 S 9 16.09 Mostly Cloudy FEW080 SCT160 BKN240 15 5     51%     1016.9 1015.5      
Jul 15 04:53 S 11 16.09 Mostly Cloudy FEW080 BKN160 BKN250 15 4     49%     1016.6 1014.9      
Jul 15 03:53 SSE 13 16.09 Mostly Cloudy FEW070 SCT090 BKN150 16 4     47%     1016.3 1014.8      
Jul 15 02:53 S 11 16.09 Mostly Cloudy FEW150 BKN250 16 4     44%     1016.3 1014.9      
Jul 15 01:53 SE 9 16.09 Mostly Cloudy FEW150 BKN250 18 4     40%     1016.3 1014.7      
Jul 15 00:53 SW 9 16.09 Mostly Cloudy FEW150 BKN250 19 4     38%     1016.3 1014.9      
Jul 14 23:53 WSW 11 16.09 Mostly Cloudy FEW150 SCT200 BKN250 18 4     40%     1016.3 1015      
Jul 14 22:53 SW 15 16.09 Mostly Cloudy BKN200 21 4     33%     1016.6 1015      
Jul 14 21:53 SW 11 16.09 Partly Cloudy FEW150 SCT200 22 4     30%   21 1016.3 1014.7      
Jul 14 20:53 SW 15 16.09 Mostly Clear FEW070 FEW150 FEW200 24 3     26%   23 1015.9 1014.4      
Jul 14 19:53 WSW 15 16.09 Mostly Clear FEW060 FEW200 26 2     21%   25 1015.6 1014      
Jul 14 18:53 W 28 16.09 Mostly Clear FEW060 FEW200 27 1     18%   26 1015.6 1013.9      
Jul 14 17:53 W 26 16.09 Mostly Clear FEW060 FEW150 FEW200 28 1     18%   27 1015.6 1013.9      
Jul 14 17:22 W 30 16.09 Clear CLR 28 2     19%   27 1015.6        
Jul 14 16:53 WSW 26 16.09 Mostly Clear FEW060 FEW150 FEW200 28 4     22%   27 1015.9 1014.2      
Jul 14 15:53 WSW 21 16.09 Mostly Clear FEW060 FEW150 FEW200 27 5     25%   26 1016.3 1014.9      
Jul 14 15:34 SSW 18 16.09 Mostly Clear FEW060 FEW150 26 4     24%   25 1016.6        
Jul 14 14:53 SW 13 16.09 Clear   26 4     26%   25 1016.9 1015.3      
Jul 14 13:53 W 22 16.09 Partly Cloudy FEW060 SCT130 26 4     26%   25 1017.3 1015.5      
Jul 14 12:53 W 28 16.09 Mostly Cloudy FEW060 BKN130 BKN170 24 4     28%   23 1017.6 1015.9      
Jul 14 11:53 SW 21 16.09 Mostly Cloudy FEW050 SCT120 BKN160 23 6     34%   22 1017.6 1016      
Jul 14 10:53 SSW 28 16.09 Mostly Cloudy FEW050 SCT120 BKN150 22 7     37%   21 1017.6 1016      
Jul 14 09:53 SSW 24 16.09 Mostly Cloudy FEW110 BKN140 19 8     47%     1017.3 1016      
Jul 14 08:53 SSW 17 16.09 Mostly Cloudy FEW110 BKN140 BKN170 19 8     48%     1017.3 1015.9      
Jul 14 07:53 SSW 22 16.09 Mostly Cloudy FEW110 BKN170 18 8     50%     1016.9 1015.1      
Jul 14 06:53 S 17 16.09 Mostly Cloudy FEW100 SCT190 BKN250 16 8     60%     1016.3 1014.7      
Jul 14 05:53 S 17 16.09 Partly Cloudy FEW110 SCT250 15 7     60%     1015.6 1013.9      
Jul 14 04:53 S 17 16.09 Mostly Clear FEW110 FEW170 FEW250 16 7     54%     1014.6 1012.8      
Jul 14 03:53 S 8 16.09 Clear CLR 16 8     62%     1014.2 1012.5      
Jul 14 02:53 S 13 16.09 Clear CLR 17 8     58%     1013.9 1012.2      
Jul 14 01:53 SW 13 16.09 Clear CLR 19 7     45%     1013.9 1012      
Jul 14 00:53 SW 15 16.09 Clear CLR 20 7     43%     1013.6 1011.8      
Jul 13 23:53 SSW 15 16.09 Clear CLR 22 8     41%   21 1013.6 1011.5      
Jul 13 22:53 SSW 11 16.09 Clear CLR 23 8     38%   22 1012.9 1011.1      
Jul 13 21:53 W 9 16.09 Mostly Clear FEW200 23 8     38%   22 1012.9 1011      
Jul 13 20:53 W 13 16.09 Mostly Clear FEW080 FEW150 FEW200 24 9     37%   24 1012.2 1010.3      
Jul 13 19:53 W 24 16.09 Mostly Clear FEW080 FEW150 FEW200 27 9     32%   27 1011.9 1009.9      
Jul 13 18:53 W 24 16.09 Mostly Clear FEW085 FEW200 29 8     27%   28 1011.9 1009.7      
Jul 13 17:53 SSW 18 16.09 Partly Cloudy FEW065 SCT090 SCT200 29 8     27%   28 1011.9 1010.1      
Jul 13 16:53 W 21 16.09 Mostly Cloudy SCT065 SCT085 BKN200 30 8     26%   28 1012.2 1010.5      
Jul 13 15:53 WSW 9 16.09 Mostly Cloudy FEW060 BKN085 BKN200 29 8     26%   28 1012.9 1010.9      
Jul 13 14:53 S 11 16.09 Mostly Cloudy FEW060 BKN090 BKN200 29 8     27%   28 1013.2 1011.3      
Jul 13 13:53 SW 18 16.09 Mostly Cloudy FEW060 SCT080 BKN120 BKN200 29 8     26%   28 1013.6 1011.7      
Jul 13 12:53 WSW 13 16.09 Mostly Cloudy FEW060 SCT080 BKN120 28 8     28%   27 1013.9 1012.1      
Jul 13 11:53 WSW 11 16.09 Mostly Cloudy FEW060 SCT080 BKN120 BKN210 27 9     32%   27 1014.2 1012.2      
Jul 13 10:53 SW 5 16.09 Mostly Cloudy FEW090 SCT120 BKN210 26 8     32%   26 1014.6 1012.6 0   0
Jul 13 09:53 WSW 8 16.09 Mostly Cloudy FEW060 SCT090 BKN120 BKN210 25 9     36%   24 1014.2 1012.5      
Jul 13 08:53 SSW 8 16.09 Mostly Cloudy FEW050 SCT090 BKN120 BKN210 23 9     41%   23 1014.9 1013 0    
Jul 13 07:53 SE 9 16.09 Mostly Cloudy FEW090 BKN120 BKN210 22 8     42%   21 1014.2 1012.4      
Jul 13 06:53 SSE 11 16.09 Partly Cloudy FEW090 SCT100 SCT130 SCT250 19 8     50%     1014.2 1012.3      
Jul 13 05:53 SSE 13 16.09 Mostly Cloudy FEW090 SCT100 BKN250 16 8     60%     1013.9 1012.1      
Jul 13 04:53 SSE 11 16.09 Mostly Cloudy FEW090 SCT100 BKN150 17 8     54%     1013.6 1011.8      
Jul 13 03:53 SSE 8 16.09 Mostly Cloudy BKN090 BKN100 BKN170 17 8     54%     1013.6 1011.7      
Jul 13 02:53 S 5 16.09 Mostly Cloudy SCT100 BKN160 18 8     52%     1013.6 1011.6      
Jul 13 00:53 SW 9 16.09 Mostly Cloudy FEW120 BKN230 21 8     44%     1013.6 1011.7      
Jul 12 23:53 SSW 13 16.09 Mostly Cloudy FEW120 BKN250 21 7     41%     1013.6 1011.9      
Jul 12 22:53 WSW 9 16.09 Partly Cloudy SCT250 22 7     39%   21 1013.6 1011.7      
Jul 12 21:53 WSW 13 16.09 Mostly Cloudy BKN250 23 8     38%   22 1013.6 1011.7      
Jul 12 20:53 W 13 16.09 Mostly Cloudy FEW190 BKN240 24 7     33%   24 1013.2 1011.5      
Jul 12 19:53 WSW 15 16.09 Mostly Cloudy FEW190 BKN250 27 7     28%   26 1012.9 1011.3      
Jul 12 18:53 SSW 18 16.09 Mostly Cloudy FEW070 FEW190 BKN250 28 8     28%   27 1012.9 1011.2      
Jul 12 17:53 SW 17 16.09 Partly Cloudy FEW070 FEW190 SCT250 29 8     27%   28 1013.2 1011.4      
Jul 12 16:53 9 16.09 Mostly Clear FEW065 FEW190 FEW250 28 9     30%   27 1013.9 1012      
Jul 12 15:53 SW 9 16.09 Mostly Clear FEW065 FEW190 FEW250 28 9     30%   27 1014.2 1012.6      
Jul 12 14:53 SW 15 16.09 Mostly Clear FEW060 FEW190 FEW250 28 9     31%   27 1015.2 1013.2      
Jul 12 13:53 SSW 13 16.09 Mostly Clear FEW060 FEW200 FEW250 27 10     34%   27 1015.6 1014      
Jul 12 12:53 SW 15 16.09 Mostly Clear FEW060 FEW200 27 9     34%   26 1016.3 1014.4      
Jul 12 11:53 SSW 8 16.09 Partly Cloudy FEW060 FEW180 SCT210 25 10     39%   25 1016.9 1015.2      
Jul 12 10:53 9 16.09 Partly Cloudy FEW050 FEW180 SCT240 24 10     41%   23 1017.3 1015.5      
Jul 12 09:53 11 16.09 Mostly Cloudy FEW060 FEW200 BKN250 23 11     46%   22 1017.6 1015.9      
Jul 12 08:53 5 16.09 Mostly Cloudy FEW060 SCT200 BKN250 21 11     53%     1018 1016.3      
Jul 12 07:53 S 11 16.09 Mostly Cloudy FEW060 BKN200 BKN260 18 10     58%     1018 1016.4      
Jul 12 06:53 S 11 16.09 Mostly Cloudy FEW060 SCT200 BKN250 17 10     63%     1017.6 1016.1      
Jul 12 05:53 S 9 16.09 Mostly Cloudy SCT060 BKN110 BKN150 BKN200 17 10     65%     1017.3 1015.7      
Jul 12 04:53 S 9 16.09 Mostly Cloudy BKN060 BKN110 BKN230 17 11     67%     1016.9 1015.4      
Jul 12 03:53 SSE 17 16.09 Mostly Cloudy FEW045 BKN060 BKN100 17 11     65%     1016.6 1015.2      
Jul 12 02:53 SSE 11 16.09 Mostly Cloudy FEW100 SCT150 BKN230 18 11     63%     1016.6 1015.2      
Jul 12 01:53 SSE 11 16.09 Mostly Cloudy FEW075 BKN250 18 11     61%     1016.6 1015.2      
Jul 12 00:53 SSE 8 16.09 Partly Cloudy FEW150 SCT250 19 10     56%     1016.6 1015.2      
Jul 11 23:53 Calm 16.09 Mostly Clear FEW075 FEW150 FEW250 19 10     55%     1016.6 1015.1      
Jul 11 22:53 SW 9 16.09 Mostly Clear FEW075 FEW150 22 10     47%   21 1016.6 1015      
Jul 11 21:53 SW 9 16.09 Mostly Clear FEW075 FEW090 22 11     48%   22 1016.9 1015.2      
Jul 11 20:53 WSW 9 16.09 Mostly Cloudy SCT075 SCT090 BKN150 24 11     43%   23 1016.6 1015      
Jul 11 19:53 SSW 8 16.09 Mostly Cloudy FEW060 SCT090 SCT150 BKN200 25 11     40%   25 1016.6 1014.9      
Jul 11 18:53 SSW 15 16.09 Mostly Cloudy FEW070 BKN090 BKN150 BKN200 26 10     36%   26 1016.6 1014.9      
Jul 11 17:53 S 13 16.09 Mostly Cloudy FEW065 BKN085 BKN150 BKN200 26 10     36%   26 1016.6 1015.1      
Jul 11 16:53 WSW 18 16.09 Mostly Cloudy SCT065 BKN080 BKN150 BKN200 27 9     34%   26 1017.3 1015.5      
Jul 11 15:53 11 16.09 Mostly Cloudy BKN065 BKN080 BKN150 BKN200 26 10     37%   25 1018 1016.1      
Jul 11 14:53 SSW 13 16.09 Cloudy BKN060 OVC075 25 10     39%   25 1018.6 1016.9      
Jul 11 13:53 S 9 16.09 Cloudy BKN060 OVC075 24 9     39%   24 1019 1017.1      
Jul 11 12:53 SSW 15 16.09 Cloudy SCT060 OVC075 24 9     40%   23 1019.3 1017.5      
Jul 11 10:53 SW 11 16.09 Partly Cloudy FEW030 FEW095 SCT220 24 9     38%   23 1019.3 1017.8     0
Jul 11 08:53 SSW 17 16.09 Mostly Cloudy FEW030 BKN090 BKN200 19 11     59%     1020 1018.6 0    
Jul 11 07:53 S 13 16.09 Light Rain FEW030 SCT070 BKN100 18 11     61%     1019.7 1018.1 0 0  
Jul 11 06:53 SSW 17 16.09 Mostly Cloudy FEW030 BKN100 BKN160 18 10     58%     1019.3 1017.6      
Jul 11 05:53 SSW 15 16.09 Cloudy FEW030 BKN100 OVC160 18 10     58%     1019 1017.2      
Jul 11 04:53 SW 21 16.09 Cloudy FEW030 BKN080 OVC160 19 10     56%     1018.6 1016.9      
Jul 11 03:53 SSW 15 16.09 Cloudy BKN110 OVC160 19 11     57%     1018 1016.5      
Jul 11 02:53 S 13 16.09 Cloudy BKN085 OVC170 20 11     55%     1018 1016.6      
Jul 11 01:53 SSW 11 16.09 Cloudy BKN100 OVC170 21 10     51%     1018 1016.5      
Jul 10 23:53 SW 13 16.09 Cloudy FEW090 FEW130 OVC170 22 11     49%   21 1017.6 1016.2      
Jul 10 22:53 SSW 11 16.09 Cloudy FEW090 SCT130 OVC200 22 10     47%   21 1017.6 1015.9      
Jul 10 21:53 SW 15 16.09 Mostly Cloudy FEW090 FEW130 BKN230 23 10     44%   22 1017.6 1015.9      
Jul 10 20:53 SW 11 16.09 Mostly Cloudy FEW060 FEW090 SCT130 BKN210 23 10     43%   23 1017.3 1015.7      
Jul 10 18:53 SSW 18 16.09 Mostly Cloudy FEW060 FEW090 BKN130 BKN250 26 9     34%   26 1016.6 1014.9      
Jul 10 17:53 SSW 13 16.09 Mostly Cloudy FEW070 FEW090 SCT120 BKN250 26 9     35%   26 1016.9 1015      
Jul 10 16:53 SSW 15 16.09 Mostly Cloudy FEW060 SCT080 BKN120 BKN200 26 10     37%   25 1017.3 1015.7     0
Jul 10 15:53 SSW 11 16.09 Mostly Cloudy FEW055 BKN080 BKN200 24 11     43%   23 1018 1016.3      
Jul 10 11:53 SW 11 12.87 Light Rain SCT075 OVC095 22 11     49%   21 1018.6 1017.1 0    
Jul 10 10:53 W 15 16.09 Cloudy SCT075 BKN100 OVC160 23 8     37%   23 1018.3 1016.4     0
Jul 10 09:53 WSW 13 16.09 Clear   22 9     44%   22 1018 1016.2 0    
Jul 10 06:53 SSE 8 16.09 Cloudy BKN110 OVC170 20 8     47%     1016.6 1014.6      
Jul 10 05:53 SE 8 16.09 Mostly Cloudy BKN100 BKN170 20 8     45%     1016.3 1014.5      
Jul 10 03:53 SE 13 16.09 Mostly Cloudy BKN110 21 8     44%     1016.3 1014.3      
Jul 10 02:53 NNW 8 16.09 Mostly Cloudy BKN120 21 7     42%     1015.9 1014      
Jul 10 01:53 NE 8 16.09 Cloudy OVC100 22 6     36%   21 1015.9 1013.9   0  
Jul 10 00:53 NNW 13 16.09 Cloudy FEW065 BKN095 OVC130 23 6     32%   23 1015.9 1013.9      
Jul 09 23:53 WNW 15 16.09 Cloudy FEW060 BKN095 OVC120 23 6     34%   22 1016.6 1014.8 0    
Jul 09 22:53 WSW 5 16.09 Light Rain FEW060 BKN095 OVC120 23 4     29%   22 1016.6 1014.6 0   0
Jul 09 21:53 SW 8 16.09 Cloudy BKN150 OVC200 24 6     31%   23 1016.6 1014.8      
Jul 09 20:53 S 5 16.09 Cloudy BKN160 OVC200 25 5     28%   24 1016.3 1014.6      
Jul 09 19:53 S 9 16.09 Cloudy FEW120 SCT160 OVC210 26 6     28%   25 1016.3 1014.7      
Jul 09 18:53 SSW 13 16.09 Mostly Cloudy FEW070 SCT140 BKN210 26 6     28%   25 1016.3 1014.8      
Jul 09 17:53 SSW 13 16.09 Cloudy FEW070 SCT140 OVC210 27 6     25%   27 1015.9 1014.6      
Jul 09 16:53 5 16.09 Mostly Cloudy FEW065 SCT140 BKN210 27 6     26%   26 1016.3 1015.1      
Jul 09 15:53 Calm 16.09 Mostly Cloudy FEW065 SCT140 BKN210 27 3     22%   26 1016.9 1015.6      
Jul 09 14:53 5 16.09 Mostly Cloudy FEW060 FEW160 BKN210 BKN250 27 4     24%   26 1017.3 1015.9      
Jul 09 13:53 SSE 15 16.09 Mostly Cloudy FEW065 FEW160 BKN220 27 3     22%   26 1017.6 1016.3      
Jul 09 12:53 9 16.09 Mostly Cloudy FEW065 BKN180 BKN230 26 6     28%   25   1016.5      
Jul 09 11:53 E 11 16.09 Mostly Cloudy FEW065 SCT200 BKN250 25 6     30%   24 1018 1016.6      
Jul 09 10:53 Calm 16.09 Mostly Cloudy FEW060 FEW200 BKN250 23 7     34%   23 1018.3 1016.8      
Jul 09 09:53 SE 8 16.09 Mostly Clear FEW060 FEW200 FEW250 22 8     41%   21   1016.9      
Jul 09 07:53 SSE 13 16.09 Mostly Clear FEW250 17 7     50%     1017.6 1016.5      
Jul 09 06:53 SE 15 16.09 Mostly Clear FEW250 14 7     60%     1017.3 1016.3      
Jul 09 05:53 SSE 9 16.09 Partly Cloudy FEW180 SCT300 13 6     62%     1017.3 1016.1      
Jul 09 04:53 SSE 13 16.09 Mostly Clear FEW180 FEW260 12 7     69%     1016.6 1015.6      
Jul 09 03:53 SSE 11 16.09 Mostly Clear FEW180 FEW260 13 7     64%     1015.9 1014.9      
Jul 09 02:53 Calm 16.09 Mostly Clear FEW260 14 6     57%     1015.6 1014.5      
Jul 09 01:53 Calm 16.09 Partly Cloudy SCT260 15 7     58%     1015.6 1014.4      
Jul 09 00:53 SSW 5 16.09 Mostly Cloudy BKN260 17 7     52%     1015.2 1014.1      
Jul 08 23:53 WSW 5 16.09 Mostly Cloudy BKN260 18 7     48%     1014.9 1013.5      
Jul 08 22:53 WSW 9 16.09 Mostly Cloudy FEW075 SCT190 BKN240 19 7     45%     1014.2 1013      
Jul 08 21:53 Calm 16.09 Mostly Cloudy SCT075 BKN190 BKN240 19 7     44%     1014.2 1013      
Jul 08 20:53 W 8 16.09 Partly Cloudy FEW075 FEW110 SCT190 SCT240 21 7     42%     1013.6 1012.4      
Jul 08 19:53 W 15 16.09 Partly Cloudy FEW075 FEW110 FEW190 SCT240 22 7     38%   21 1013.2 1011.9      
Jul 08 18:53 WNW 15 16.09 Mostly Cloudy FEW075 FEW110 SCT190 BKN240 23 6     32%   23 1012.9 1011.8      
Jul 08 17:53 W 11 16.09 Mostly Cloudy FEW075 FEW110 SCT190 BKN240 23 3     27%   22 1012.5 1011.7      
Jul 08 16:53 9 16.09 Mostly Cloudy FEW060 FEW070 FEW110 SCT180 BKN240 23 5     31%   22 1012.9 1011.8      
Jul 08 14:53 SW 18 16.09 Mostly Cloudy SCT060 SCT075 BKN100 BKN200 22 7     38%   21 1013.2 1012.2      
Jul 08 13:53 9 16.09 Mostly Cloudy SCT070 BKN100 BKN200 22 6     35%   21 1013.2 1012.1      
Jul 08 12:53 SW 15 16.09 Mostly Cloudy SCT070 BKN100 BKN210 21 7     41%     1013.6 1012.5      
Jul 08 11:53 SW 11 16.09 Mostly Cloudy FEW060 FEW120 BKN200 21 7     41%     1013.9 1012.5      
Jul 08 10:53 WSW 8 16.09 Mostly Cloudy FEW080 FEW120 BKN210 19 7     45%     1014.2 1012.9      
Jul 08 09:53 5 16.09 Mostly Cloudy FEW060 FEW100 FEW130 BKN220 18 7     48%     1014.2 1013      
Jul 08 08:53 Calm 16.09 Mostly Cloudy FEW060 FEW100 FEW130 BKN220 16 8     58%     1014.2 1013.2      
Jul 08 07:53 SSE 9 16.09 Partly Cloudy FEW060 FEW080 FEW110 SCT240 15 7     60%     1014.2 1013.2      
Jul 08 06:53 S 15 16.09 Partly Cloudy FEW060 SCT080 SCT110 SCT230 13 6     64%     1013.9 1013      
Jul 08 05:53 S 9 16.09 Clear   12 6     64%     1013.6 1012.5      
Jul 08 04:53 S 13 16.09 Partly Cloudy FEW060 SCT080 SCT250 13 6     62%     1013.2 1012      
Jul 08 03:53 SSE 13 16.09 Mostly Cloudy BKN075 13 6     60%     1012.9 1011.7      
Jul 08 02:53 SE 9 16.09 Mostly Clear FEW080 14 5     55%     1012.9 1011.7      
Jul 08 01:53 Calm 16.09 Clear CLR 16 6     51%     1012.5 1011.5      
Jul 08 00:53 SW 15 16.09 Clear CLR 16 6     50%     1012.5 1011.3      
Jul 07 23:53 SSW 13 16.09 Clear CLR 17 5     45%     1012.5 1011.4      
Jul 07 22:53 SSW 13 16.09 Mostly Clear FEW090 19 6     42%     1012.5 1011.3      
Jul 07 21:53 SSW 15 16.09 Mostly Clear FEW080 20 5     37%     1012.5 1011.3      
Jul 07 20:53 SSW 9 16.09 Mostly Clear FEW080 FEW200 21 4     33%     1011.9 1010.8      
Jul 07 19:53 SSW 17 16.09 Mostly Clear FEW070 FEW200 23 4     29%   22 1011.9 1010.6      
Jul 07 18:53 SW 13 16.09 Mostly Clear FEW070 FEW200 23 4     28%   22 1011.9 1010.7      
Jul 07 17:53 WSW 22 16.09 Clear   24 3     26%   23 1011.9 1010.7      
Jul 07 16:53 9 16.09 Partly Cloudy SCT065 SCT150 23 5     31%   22 1012.2 1011.2      
Jul 07 15:53 SW 13 16.09 Partly Cloudy SCT065 SCT200 23 5     31%   22 1012.5 1011.4      
Jul 07 14:53 S 17 16.09 Partly Cloudy SCT060 SCT200 23 5     31%   22 1012.9 1011.7      
Jul 07 13:53 S 21 16.09 Partly Cloudy SCT055 SCT200 22 6     34%   21 1013.2 1012      
Jul 07 12:53 SSW 18 16.09 Partly Cloudy SCT050 SCT100 22 7     38%   21 1013.9 1012.6      
Jul 07 11:53 SW 17 16.09 Mostly Clear FEW060 FEW100 21 7     42%     1014.2 1012.9      
Jul 07 10:53 SSW 17 16.09 Partly Cloudy FEW060 FEW100 SCT150 19 7     45%     1014.6 1013.3     0
Jul 07 09:53 SSW 21 16.09 Partly Cloudy FEW080 SCT120 SCT250 17 7     50%     1014.9 1013.7      
Jul 07 08:53 SSW 13 16.09 Mostly Clear FEW080 FEW120 FEW250 16 7     55%     1015.2 1014      
Jul 07 07:53 SSW 18 16.09 Partly Cloudy FEW080 FEW120 SCT250 14 7     62%     1015.2 1013.9   0  
Jul 07 06:53 S 13 16.09 Mostly Clear FEW090 FEW120 FEW240 12 7     69%     1015.2 1013.9 0    
Jul 07 05:53 SE 9 16.09 Partly Cloudy FEW080 SCT300 12 7     71%     1014.9 1013.5      
Jul 07 04:53 SSW 17 16.09 Mostly Clear FEW080 FEW130 FEW180 12 6     66%     1014.2 1012.9      
Jul 07 03:53 S 15 16.09 Mostly Clear FEW100 FEW140 FEW180 13 7     64%     1013.6 1012.3      
Jul 07 02:53 S 17 16.09 Partly Cloudy SCT140 15 7     60%     1013.6 1011.9      
Jul 07 01:53 SSW 21 16.09 Mostly Cloudy SCT120 BKN250 16 7     56%     1013.2 1011.8      
Jul 07 00:53 SSW 22 16.09 Partly Cloudy FEW120 SCT250 18 6     45%     1013.2 1011.5      
Jul 06 23:53 SW 15 16.09 Partly Cloudy SCT250 19 5     40%     1013.2 1011.6      
Jul 06 22:53 SW 13 16.09 Mostly Clear FEW250 19 4     37%     1012.9 1011.5      
Jul 06 21:53 SW 17 16.09 Mostly Clear FEW080 FEW250 21 5     35%     1012.9 1011.5      
Jul 06 20:53 SSW 15 16.09 Partly Cloudy FEW080 FEW120 SCT250 23 3     28%   22 1012.5 1011.2      
Jul 06 19:53 SSW 18 16.09 Mostly Cloudy FEW080 FEW120 BKN250 24 4     26%   24 1012.5 1011.1      
Jul 06 18:53 SW 18 16.09 Partly Cloudy FEW080 FEW120 SCT250 26 3     22%   25 1012.2 1010.7      
Jul 06 17:53 WSW 22 16.09 Mostly Clear FEW080 FEW120 FEW250 27 4     23%   26 1012.5 1011      
Jul 06 16:53 SW 26 16.09 Partly Cloudy FEW075 FEW160 SCT250 27 3     22%   26 1012.9 1011.4      
Jul 06 15:53 S 18 16.09 Mostly Cloudy FEW070 FEW120 SCT160 BKN250 27 7     29%   26 1013.9 1012.1      
Jul 06 14:53 SSW 18 16.09 Mostly Cloudy FEW065 FEW120 SCT160 BKN250 26 7     30%   26 1014.6 1012.8      
Jul 06 12:53 SSW 18 16.09 Mostly Cloudy FEW060 FEW110 BKN250 25 8     35%   24 1015.6 1013.9      
Jul 06 11:53 SSW 17 16.09 Mostly Cloudy FEW060 FEW110 SCT140 BKN250 23 9     41%   23 1015.9 1014.3      
Jul 06 10:53 SSW 21 16.09 Mostly Cloudy FEW080 SCT120 BKN250 23 9     41%   22 1015.9 1014.2      
Jul 06 08:53 S 11 16.09 Clear   19 8     47%     1016.6 1014.7      
Jul 06 07:53 S 13 16.09 Mostly Cloudy FEW080 SCT120 BKN250 18 8     54%     1016.6 1014.8      
Jul 06 06:53 S 15 16.09 Mostly Cloudy SCT120 SCT140 BKN250 17 8     58%     1016.6 1014.9      
Jul 06 05:53 S 15 16.09 Mostly Cloudy FEW100 SCT120 BKN250 17 9     60%     1016.3 1014.6      
Jul 06 04:53 S 11 16.09 Mostly Cloudy FEW090 SCT130 BKN200 BKN250 16 9     64%     1016.3 1014.8      
Jul 06 03:53 ESE 5 16.09 Partly Cloudy FEW120 SCT250 18 9     58%     1016.3 1014.6      
Jul 06 02:53 SSE 11 16.09 Partly Cloudy SCT250 18 9     58%     1015.6 1014      
Jul 06 01:53 Calm 16.09 Mostly Clear FEW240 19 10     56%     1015.9 1014      
Jul 06 00:53 SW 5 16.09 Mostly Cloudy BKN240 19 11     61%     1015.9 1014.2      
Jul 05 23:53 SSE 9 16.09 Mostly Cloudy FEW090 SCT110 BKN240 21 9     46%     1016.6 1014.7      
Jul 05 22:53 NW 11 16.09 Cloudy SCT070 BKN095 OVC240 22 9     43%   22 1016.6 1014.8     0
Jul 05 22:42   16.09 Light Rain BKN070 OVC095 22 9     45%   21 1016.6        
Jul 05 21:53 WSW 11 16.09 Cloudy FEW070 SCT100 BKN150 OVC240 25 6     29%   24 1016.3 1014.3      
Jul 05 20:53 S 9 16.09 Cloudy FEW080 SCT110 BKN150 OVC240 27 6     26%   26 1015.9 1013.9      
Jul 05 19:53 SSW 13 16.09 Mostly Cloudy SCT120 BKN240 28 5     23%   27 1015.6 1013.7      
Jul 05 18:53 SSW 13 16.09 Mostly Cloudy FEW085 FEW120 BKN260 28 6     24%   27 1015.6 1014      
Jul 05 17:53 SSW 13 16.09 Mostly Cloudy FEW085 BKN260 28 6     24%   27 1015.9 1014.3      
Jul 05 16:53 S 24 16.09 Mostly Cloudy SCT085 BKN250 28 5     23%   27 1016.3 1014.7      
Jul 05 15:53 WSW 13 16.09 Mostly Cloudy SCT085 BKN250 28 7     26%   27 1016.9 1015.3      
Jul 05 14:53 SSW 22 16.09 Mostly Cloudy FEW075 FEW100 BKN190 BKN250 28 8     28%   27 1017.3 1015.6      
Jul 05 13:53 SSE 11 16.09 Mostly Cloudy FEW075 FEW120 SCT180 BKN240 28 7     27%   27 1017.6 1015.9      
Jul 05 12:53 S 15 16.09 Mostly Cloudy FEW070 FEW120 SCT190 BKN220 26 7     30%   26 1018.3 1016.6      
Jul 05 11:53 SSE 15 16.09 Cloudy FEW090 FEW180 OVC220 26 7     31%   25 1018.6 1016.9      
Jul 05 10:53 S 11 16.09 Cloudy FEW090 SCT180 OVC240 23 9     40%   23 1018.6 1017.1      
Jul 05 09:53 ESE 15 16.09 Mostly Cloudy FEW100 SCT190 BKN240 21 9     47%       1017.2      
Jul 05 08:53 E 11 16.09 Mostly Cloudy FEW100 FEW150 BKN240 19 10     55%     1018.6 1017      
Jul 05 07:53 ESE 9 16.09 Mostly Cloudy FEW150 BKN260 18 9     58%     1018.3 1016.9      
Jul 05 06:53 ESE 11 16.09 Mostly Cloudy FEW150 BKN260 16 9     64%     1018.3 1016.7      
Jul 05 05:53 E 5 16.09 Mostly Cloudy FEW150 BKN260 14 9     72%     1017.6 1016.2      
Jul 05 04:53 ENE 13 16.09 Mostly Cloudy FEW150 SCT220 BKN260 15 9     69%     1017.3 1015.9      
Jul 05 03:53 ENE 8 16.09 Mostly Cloudy FEW150 BKN230 16 8     60%     1016.6 1015.3      
Notice The following observation data may not be complete
Jul 05 02:53 E 8 16.09 Mostly Cloudy FEW150 BKN230   8      %     1016.6 1015.1      
Notice The following observation data may not be complete
Jul 05 01:53 E 5 16.09 Mostly Cloudy FEW150 BKN230   7      %     1016.3 1014.7      
Jul 05 00:53 ENE 5 16.09 Mostly Cloudy FEW150 BKN220 18 6     46%     1015.9 1014.4      
Jul 04 23:53 SE 11 16.09 Mostly Cloudy FEW150 BKN220 19 6     42%     1015.6 1014      
Jul 04 22:53 SW 5 16.09 Clear   20 6     39%     1015.2 1013.9      
Jul 04 21:53 SSW 8 16.09 Mostly Cloudy FEW170 BKN240 21 6     38%     1015.2 1013.7      
Jul 04 20:53 SW 11 16.09 Mostly Cloudy FEW085 SCT170 BKN240 23 6     33%   23 1014.9 1013.4      
Jul 04 19:53 S 11 16.09 Mostly Cloudy FEW085 FEW170 BKN240 25 6     29%   24 1014.2 1012.7      
Notice The following observation data may not be complete
May 15 01:53 Calm 16.09 Clear CLR   5      %     1013.2 1011.7      
May 14 16:53 Calm 16.09 Mostly Clear FEW060 FEW250 28 0     16%   27 1014.6 1012.9      
May 14 02:53 Calm 16.09 Clear   14 7     62%     1016.3 1014.9      
May 13 21:53 NW 5 16.09 Mostly Clear FEW100 18 6     45%     1015.2 1013.9      
May 13 15:53 NNE 15 16.09 Mostly Clear FEW060 27 2     20%   26 1014.2 1012.9      
May 12 05:53 Calm 16.09 Patchy Fog FEW200 7 6     93%     1019 1019      
May 12 01:53 Calm 16.09 Clear CLR 9 7     86%     1019 1018.8      
May 11 05:53 Calm 16.09 Patchy Fog FEW006 SCT130 BKN200 6 6     97%     1016.6 1017      
Jun 10 19:53 SSW 17 16.09 Clear   16 3     42%     1009.5 1009.1      
Jun 10 16:49   16.09 Mostly Cloudy FEW030 SCT050 BKN065 BKN130 17 2     36%     1008.1        
Jun 08 07:53 SSW 17 16.09 Cloudy SCT070 BKN090 OVC150 19 10     56%     1004.8 1002.4      
Jun 07 10:53 ENE 17 16.09 Partly Cloudy FEW012 SCT240 25 10     39%   25 1010.5 1008.6      
Notice The following observation data may not be complete
Jun 07 05:53 NE 9 16.09 Partly Cloudy FEW170 SCT200   8      %     1012.5 1010.8